Location: Ostrava
(49.8330°N, 18.2830°E)
Time: 04:00:55
(UTC+02:00)

ISS - Pass Details

Date: 26 May 2021
Orbit: 417 x 422 km, 51.6° (Epoch: 13 June)

Event Time Altitude Azimuth Distance (km) Brightness Sun altitude
Rises 21:25:17 0° 285° (WNW) 2,366 1.3 -6.4°
Reaches altitude 10° 21:27:23 10° 286° (WNW) 1,502 0.2 -6.7°
Maximum altitude 21:30:45 79° 14° (NNE) 432 -3.6 -7.0°
Drops below altitude 10° 21:34:07 10° 101° (ESE) 1,501 -1.4 -7.4°
Enters shadow 21:34:51 - 102° (ESE) 1,795 -1.1 -7.5°
